User: anonymous   Login
Location: Unspecified
(0.0000°N, 0.0000°E)
Time: 05:09:47
(UTC+00:00)
Language:

DIWATA 2B (PO-101) - Orbit

View from above orbital plane
View from above orbital plane
View from above satellite
View from above satellite

Ground track
Ground track

The orbit data is extracted from the following two-line orbital elements,

1 43678U 18084H   24057.76532618  .00002818  00000-0  26552-3 0  9997
2 43678  98.0538 212.6470 0010013  45.4533 314.7503 14.94632928290275
Epoch (UTC): 26 February 2024 18:22:04
Eccentricity: 0.0010013
inclination: 98.0538°
perigee height: 576 km
apogee height: 590 km
right ascension of ascending node: 212.6470°
argument of perigee: 45.4533°
revolutions per day: 14.94632928
mean anomaly at epoch: 314.7503°
orbit number at epoch: 29027

The dashed part of the orbit path shows where the satellite is in the earth's shadow,  

DLR